Home > Weather > Hamilton > Past weeks

Flag for Bermuda Weather for the Past 2 Weeks in Hamilton, Bermuda

Now
61 °F

Passing clouds.


Feels Like: 61 °F
Forecast: 61 / 70 °F
Wind: 14 mph from Southwest

Location: Bermuda

Current Time: Feb 12, 2016 at 11:03:47 PM

Latest Report: Feb 12, 2016 at 9:55 PM


Visibility: N/A

Pressure: 30.15 "Hg

Humidity: 63%

Dew point: 48 °F

Location of HamiltonLocation

Historic Weather in Hamilton — Graph

°F

Hamilton Temperature Yesterday

Maximum temperature yesterday: 68 °F (at 12:55 AM)
Minimum temperature yesterday: 63 °F (at 10:55 AM)
Average temperature yesterday: 65 °F

High & Low Weather Summary for the Past Weeks

 TemperatureHumidityPressure
High73 °F (Jan 29, 9:55 AM)94% (Jan 29, 1:55 PM)30.36 "Hg (Jan 29, 1:55 PM)
Low59 °F (Jan 31, 4:55 AM)49% (Feb 12, 4:55 PM)29.59 "Hg (Feb 8, 3:55 AM)
Average67 °F75%30.05 "Hg
* Reported Jan 28 9:55 PM — Feb 12 9:55 PM, Hamilton, Weather by CustomWeather, © 2016

Note: Actual official high and low records may vary slightly from our data, if they occured in-between our weather recording intervals... More about our weather records

Advertising

Hamilton Weather History for the Previous 24 Hours

 ConditionsComfort  
Time TempWeatherWind HumidityBarometerVisibility
9:55 PM
Fri, Feb 12
61 °FPassing clouds.14 mph63%30.15 "HgN/A
8:55 PM59 °FPassing clouds.6 mph63%30.18 "HgN/A
7:55 PM59 °FPassing clouds.6 mph59%30.21 "HgN/A
6:55 PM59 °FPassing clouds.7 mph59%30.21 "HgN/A
5:55 PM61 °FPassing clouds.6 mph55%30.21 "HgN/A
4:55 PM63 °FPassing clouds.9 mph49%30.21 "HgN/A
3:55 PM63 °FPassing clouds.14 mph56%30.21 "HgN/A
2:55 PM63 °FScattered clouds.16 mph56%30.21 "HgN/A
1:55 PM63 °FScattered clouds.17 mph52%30.21 "HgN/A
12:55 PM63 °FBroken clouds.18 mph52%30.24 "HgN/A
11:55 AM61 °FPartly sunny.18 mph55%30.27 "HgN/A
10:55 AM61 °FBroken clouds.17 mph59%30.27 "HgN/A
9:55 AM61 °FBroken clouds.17 mph55%30.27 "HgN/A
8:55 AM61 °FMostly cloudy.16 mph63%30.24 "HgN/A
7:55 AM61 °FScattered showers. Broken clouds.18 mph68%30.21 "HgN/A
6:55 AM61 °FSprinkles. Overcast.18 mph63%30.18 "HgN/A
5:55 AM63 °FScattered showers. Partly cloudy.23 mph59%30.18 "HgN/A
4:55 AM63 °FPassing clouds.23 mph59%30.15 "HgN/A
3:55 AM63 °FScattered showers. Partly cloudy.23 mph64%30.12 "HgN/A
2:55 AM63 °FScattered showers. Passing clouds.24 mph59%30.12 "HgN/A
1:55 AM63 °FPartly cloudy.28 mph56%30.12 "HgN/A
12:55 AM63 °FScattered showers. Passing clouds.26 mph64%30.12 "HgN/A
11:55 PM
Thu, Feb 11
63 °FScattered showers. Mostly cloudy.24 mph64%30.12 "HgN/A
Weather by CustomWeather, © 2016

See weather overviewHow to use our weather pages